This is the latest recevied weather packets stored in our database for station/object DW2488. If no packets are shown the sender has not sent any weather packets the latest 10 day(s).
| Time | Temp. | Humidity | Pressure | Rain* | Wind** | Luminosity | Snow |
|---|---|---|---|---|---|---|---|
| 1777613891 | 23.89° C | 56% | 1026.9 hPa | 0 mm | - | 83 W/m² | - |
| 1777612992 | 24.44° C | 56% | 1026.9 hPa | 0 mm | - | 95 W/m² | - |
| 1777612092 | 23.89° C | 56% | 1026.9 hPa | 0 mm | - | 320 W/m² | - |
| 1777611197 | 23.89° C | 58% | 1027 hPa | 0 mm | - | 357 W/m² | - |
| 1777610291 | 23.33° C | 59% | 1027.1 hPa | 0 mm | - | 359 W/m² | - |
| 1777609391 | 23.89° C | 59% | 1027.1 hPa | 0 mm | - | 120 W/m² | - |
| 1777608483 | 24.44° C | 59% | 1027 hPa | 0 mm | - | 601 W/m² | - |
| 1777607574 | 23.89° C | 60% | 1027.1 hPa | 0 mm | - | 392 W/m² | - |
| 1777606674 | 23.33° C | 61% | 1027.4 hPa | 0 mm | - | 251 W/m² | - |
| 1777605769 | 23.89° C | 61% | 1027.6 hPa | 0 mm | - | 165 W/m² | - |
| 1777604870 | 24.44° C | 57% | 1027.8 hPa | 0 mm | - | 207 W/m² | - |
| 1777603968 | 25° C | 60% | 1027.9 hPa | 0 mm | - | 545 W/m² | - |
| 1777603066 | 24.44° C | 60% | 1028 hPa | 0 mm | - | 341 W/m² | - |
| 1777602165 | 24.44° C | 61% | 1028.3 hPa | 0 mm | - | 371 W/m² | - |
| 1777601263 | 24.44° C | 60% | 1028.5 hPa | 0 mm | - | 399 W/m² | - |
| 1777600368 | 24.44° C | 59% | 1029 hPa | 0 mm | - | 450 W/m² | - |
| 1777599462 | 24.44° C | 62% | 1029.2 hPa | 0 mm | - | 671 W/m² | - |
| 1777598564 | 23.33° C | 62% | 1029.4 hPa | 0 mm | - | 668 W/m² | - |
| 1777597662 | 22.78° C | 65% | 1029.4 hPa | 0 mm | - | 573 W/m² | - |
| 1777596755 | 21.67° C | 67% | 1029.6 hPa | 0 mm | - | 397 W/m² | - |
| 1777595836 | 21.67° C | 67% | 1030 hPa | 0 mm | - | 387 W/m² | - |
| 1777594936 | 21.11° C | 71% | 1030.1 hPa | 0 mm | - | 362 W/m² | - |
| 1777594044 | 20.56° C | 71% | 1030.1 hPa | 0 mm | - | 269 W/m² | - |
| 1777593132 | 19.44° C | 74% | 1030.1 hPa | 0 mm | - | 362 W/m² | - |
| 1777592223 | 18.89° C | 75% | 1030.3 hPa | 0 mm | - | 295 W/m² | - |
* Rain latest hour (hover to see other rain measurements)
** Current wind speed in m/s (hover to see current wind gust speed)